Content
SEND FEEDBACK

Daily
Averages
Monthly
Summary
South Korea

CHINHAE, SOUTH KOREA


Home > Asia > South Korea
Elevation: 8 feet     Latitude: 35 08N     Longitude: 128 41E

WEATHER
 
SELECT A DAY
Number of Records: 173,306;   Date Range: 7/1/96 - 9/21/14
 
SHARE

PRINT THIS DATA

[ ← Previous Day ]
WEATHER ALMANAC - JANUARY 23, 2013
[ Next Day → ]
[ °C ]   °F
Weather ElementAverageHighLow
Temperature41.1 °F42.8 °F (11:00 am)37.4 °F (11:00 pm)
Dewpoint35.2 °F39.2 °F (2:00 pm)30.2 °F (8:00 am)
Humidity79.7 %93 % (9:00 pm)65 % (8:00 am)
Barometer30.07 in30.16 in (2:00 am)30.01 in (4:00 pm)
Wind Speed6.1 mph9.2 mph (1:33 pm)
Weather ElementAverage
Visibility5.3 mi
Wind DirectionS (177.3 °)

Weather ElementTotal
Precipitation---
Heating Degree Days24.9 (Base 65)
Averaged from 26 records on January 23, 2013
WEATHER CONDITIONS BREAKOUT
WIND DIRECTION BREAKOUT
WEATHER BY HOUR - JANUARY 23, 2013
[ °C ]   °F
Local TimeTemperatureDewpointHumidityBarometerVisibilityWind DirectionWind SpeedGust SpeedPrecipitationEventsConditions
1:00 AM41.0 °F33.8 °F76 %30.15 in6.2 miNNE (20°)6.9 mphMostly Cloudy
2:00 AM41.0 °F33.8 °F76 %30.16 in6.2 miNNE (20°)6.9 mphMostly Cloudy
3:00 AM41.0 °F33.8 °F76 %30.15 in6.2 miNE (40°)6.9 mphMostly Cloudy
4:00 AM39.2 °F33.8 °F81 %30.12 in6.2 miNE (40°)8.1 mphMostly Cloudy
5:00 AM41.0 °F32.0 °F70 %30.09 in6.2 miNE (40°)8.1 mphMostly Cloudy
6:00 AM41.0 °F32.0 °F70 %30.06 in6.2 miNNE (20°)8.1 mphMostly Cloudy
7:00 AM41.0 °F32.0 °F70 %30.09 in6.2 miNorth (360°)4.6 mphMostly Cloudy
8:00 AM41.0 °F30.2 °F65 %30.06 in6.2 miNorth (10°)8.1 mphMostly Cloudy
9:00 AM41.0 °F32.0 °F70 %30.09 in5.6 miNorth (10°)8.1 mphRainLight Rain
10:00 AM41.0 °F33.8 °F76 %30.09 in5.6 miNorth (10°)5.8 mphRainLight Rain
11:00 AM42.8 °F33.8 °F70 %30.09 in5.6 miNNE (20°)8.1 mphRainLight Rain
12:00 PM42.8 °F35.6 °F76 %30.06 in5.0 miNNE (20°)6.9 mphRainLight Rain
1:00 PM42.8 °F35.6 °F76 %30.04 in3.7 miNorth (360°)8.1 mphRainLight Rain
1:33 PM42.8 °F37.4 °F81 %30.04 inWNW (300°)9.2 mphRainLight Rain
2:00 PM42.8 °F39.2 °F87 %30.04 inNW (310°)6.9 mphRainLight Rain
3:00 PM42.8 °F37.4 °F81 %30.04 in3.7 miNW (310°)5.8 mphRainLight Rain
4:00 PM42.8 °F37.4 °F81 %30.01 in5.0 miNW (310°)5.8 mphRainLight Rain
5:00 PM42.8 °F37.4 °F81 %30.01 in5.0 miNW (310°)5.8 mphRainLight Rain
6:00 PM41.0 °F37.4 °F87 %30.04 in5.0 miNW (310°)6.9 mphOvercast
7:00 PM41.0 °F35.6 °F81 %30.04 in5.0 miWNW (300°)5.8 mphOvercast
7:07 PM41.0 °F35.6 °F81 %30.04 in5.0 miWNW (300°)5.8 mphRainLight Rain
8:00 PM41.0 °F37.4 °F87 %30.06 in3.7 miNW (310°)3.5 mphRainLight Rain
9:00 PM39.2 °F37.4 °F93 %30.04 in5.0 miWSW (250°)1.2 mphRainLight Rain
9:39 PM39.2 °F37.4 °F93 %30.06 in5.0 miNW (310°)2.3 mphMostly Cloudy
10:00 PM39.2 °F37.4 °F93 %30.04 in5.0 miNNE (30°)2.3 mphMostly Cloudy
11:00 PM37.4 °F35.6 °F93 %30.04 in5.0 miWNW (290°)3.5 mphMostly Cloudy
Hourly data recorded from RKPK, located miles away from Chinhae, South Korea







STORIES FROM OUR PARTNERS